CAS500-2

导读

CAS500-2(NORAD编号69013)是韩国CAS500系列第二颗自主对地观测卫星,由韩国航空航天工业公司(KAI)制造,重量约500公斤,属于高分辨率光学成像卫星,核心目标是增强韩国自主高精度对地观测能力。 该卫星于2026年5月3日由SpaceX猎鹰9号火箭从范登堡太空军基地发射,送入太阳同步轨道,本次任务采用拼车发射模式,共搭载包括CAS500-2在内的45颗卫星,覆盖国防、商业探测等多领域,复用火箭助推器完成任务后成功回收,标志着韩国对地观测体系进一步完善。

基本信息
目录编号:
69013
目录名称:
CAS500-2
国际标识:
2026-100AK
轨道中心:
EARTH
卫星名称:
CAS500-2
卫星全名:
CAS500-2
卫星状态:
在轨 (已飞行125 天)
发射日期:
2026-05-03 UTC
国别 :
韩国 (KR)
星等 :
--
轨道信息
数据来源 国际轨道数据
星历时间: 2026-09-04T23:39:29+0800
1天前
查看轨道信息
半长轴: 6883.505km
偏心率: 0.0011207
轨道倾角: 97.377°
近地点辐角 96.447°
升交点赤经 143.895°
平近点角 263.804°
近地点: 497.653km
远地点: 513.083km
周期: 94.727分钟
每日圈数: 15.201566
详细信息
使用方式:
暂无
2D轨道图
3D轨道图
轨道高度分析图
轨道倾角分析图
轨道综合分析图
查看轨道综合分析图
交会数据列表
事件ID 空间交会对象 最接近时刻(TCA) 交会距离 交会风险概率(CRP) 交会风险指数(CRI) 操作
CDM_260906-071306-673406-901322
CAS500-2 (69013)
2026-09-06T
07:13:22+0000
0.566 km
远距离
1.546301E-4 高风险 0.79
CDM_260906-084806-673406-901322
CAS500-2 (69013)
2026-09-06T
08:48:08+0000
0.809 km
远距离
5.565663E-5 中风险 0.7
CDM_260907-113906-675806-901321
PIAST-M (66758)
CAS500-2 (69013)
2026-09-07T
11:39:10+0000
1.093 km
极远距离
2.02631E-5 中风险 0.61
CDM_260906-172505-404206-901324
CAS500-2 (69013)
2026-09-06T
17:25:22+0000
1.321 km
极远距离
9.861697E-6 低风险 0.55
CDM_260906-053806-673406-901322
CAS500-2 (69013)
2026-09-06T
05:38:35+0000
1.733 km
极远距离
4.315113E-6 低风险 0.48
CDM_260903-065106-843806-901322
OBJECT Y (68438)
CAS500-2 (69013)
2026-09-03T
06:51:24+0000
1.624 km
极远距离
3.37888E-6 低风险 0.46
CDM_260907-100406-675806-901321
PIAST-M (66758)
CAS500-2 (69013)
2026-09-07T
10:04:24+0000
1.889 km
极远距离
3.37136E-6 低风险 0.46
CDM_260906-102206-673406-901322
CAS500-2 (69013)
2026-09-06T
10:22:55+0000
2.004 km
极远距离
2.881491E-6 低风险 0.44
CDM_260907-012306-673406-901322
CAS500-2 (69013)
2026-09-07T
01:23:17+0000
2.183 km
极远距离
2.341486E-6 低风险 0.42
CDM_260906-234806-673406-901322
CAS500-2 (69013)
2026-09-06T
23:48:30+0000
2.345 km
极远距离
2.006904E-6 低风险 0.41